STARLINK-36044 (66799 NORAD) Tracking and Keplerian Element Data

This shows tracking and keplerian element data for the satellite.

Feedback or suggestion? Click here.




ElementValue
Catalog66799
NameSTARLINK-36044
Epoch Orbit416
Epoch Day354.25003472
Epoch Year2025
RAAN206.4392
Inclination42.9996
Eccentricity0.0001344
Argument of Perigee256.6064
Mean Anonmoly341.3358
Mean Motion15.63546792
Decay Rate-0.01989453
L11 66799U 25278J 25354.25003472 -.01989453 00000+0 -23717-1 0 9994
L22 66799 42.9996 206.4392 0001344 256.6064 341.3358 15.63546792 4161



Live tracking and technical data element details for STARLINK-36044 (NORAD 66799). STARLINK-36044 can be tracked NOW for your location showing map with azimuth and elevation plus other details from your city location.







IsCatalogInMostPopularTable: catalog: 66799, numindb: 10
Update: records affected: 1



GetName: 66799 STARLINK-36044

Hit Count: updated at: Sun, 08 Feb 2026 08:18:34 GMT